This is the latest recevied weather packets stored in our database for station/object KF0WJA. If no packets are shown the sender has not sent any weather packets the latest 10 day(s).
| Time | Temp. | Humidity | Pressure | Rain* | Wind** | Luminosity | Snow |
|---|---|---|---|---|---|---|---|
| 1788133830 | 36.67° C | 35% | 1013.5 hPa | 0 mm | - | 114 W/m² | - |
| 1788133525 | 37.22° C | 34% | 1013.1 hPa | 0 mm | - | 128 W/m² | - |
| 1788133221 | 37.22° C | 34% | 1013.1 hPa | 0 mm | - | 147 W/m² | - |
| 1788132916 | 37.22° C | 34% | 1013.1 hPa | 0 mm | - | 170 W/m² | - |
| 1788132612 | 37.22° C | 34% | 1013.1 hPa | 0 mm | - | 178 W/m² | - |
| 1788132308 | 37.78° C | 34% | 1013.2 hPa | 0 mm | - | 191 W/m² | - |
| 1788132004 | 37.22° C | 34% | 1013.3 hPa | 0 mm | - | 187 W/m² | - |
| 1788131699 | 37.78° C | 33% | 1013.1 hPa | 0 mm | - | 222 W/m² | - |
| 1788131398 | 37.78° C | 33% | 1013.2 hPa | 0 mm | - | 232 W/m² | - |
| 1788131094 | 37.78° C | 33% | 1013 hPa | 0 mm | - | 250 W/m² | - |
| 1788130792 | 37.78° C | 33% | 1013 hPa | 0 mm | - | 273 W/m² | - |
| 1788130489 | 37.78° C | 33% | 1012.8 hPa | 0 mm | - | 284 W/m² | - |
| 1788130188 | 38.33° C | 34% | 1012.8 hPa | 0 mm | - | 317 W/m² | - |
| 1788129887 | 38.33° C | 33% | 1012.9 hPa | 0 mm | - | 309 W/m² | - |
| 1788129584 | 38.33° C | 33% | 1012.7 hPa | 0 mm | - | 317 W/m² | - |
| 1788129281 | 38.33° C | 33% | 1012.7 hPa | 0 mm | - | 364 W/m² | - |
| 1788128979 | 38.89° C | 33% | 1012.7 hPa | 0 mm | - | 379 W/m² | - |
| 1788128674 | 38.89° C | 33% | 1012.9 hPa | 0 mm | - | 396 W/m² | - |
| 1788128370 | 38.89° C | 33% | 1012.7 hPa | 0 mm | - | 395 W/m² | - |
| 1788128066 | 38.89° C | 33% | 1012.7 hPa | 0 mm | - | 412 W/m² | - |
| 1788127762 | 38.89° C | 33% | 1012.8 hPa | 0 mm | - | 416 W/m² | - |
| 1788127462 | 38.89° C | 33% | 1012.9 hPa | 0 mm | - | 424 W/m² | - |
| 1788127159 | 38.89° C | 33% | 1012.9 hPa | 0 mm | - | 427 W/m² | - |
| 1788126854 | 38.89° C | 33% | 1012.9 hPa | 0 mm | - | 415 W/m² | - |
| 1788126549 | 38.89° C | 34% | 1013 hPa | 0 mm | - | 438 W/m² | - |
* Rain latest hour (hover to see other rain measurements)
** Current wind speed in m/s (hover to see current wind gust speed)